This demonstration page uses our WeatherBlox Daily Observations layout. Learn more.

Left ArrowRight Arrow

40.92945, -100.16068

Hourly Observations for October 4, 2016

Temp ( °F °C ) Dew Point ( °F °C ) Humidity (%) Winds ( mph kmh ) Pressure ( in mb ) Visibility ( mi km ) Precip ( " mm )
12:15 am 00:15 Clear 70 21.1 52 11.2 53 53 S 21 33 29.47 998 10 16 N/A
12:35 am 00:35 Mostly Cloudy 66 18.8 51 10.6 59 59 W 18 30 29.56 1001 10 16 N/A
12:55 am 00:55 Cloudy with Light Rain 60 15.3 50 10.1 71 71 NNW 18 30 29.62 1003 10 16 N/A
1:15 am 01:15 Cloudy with Drizzle 58 14.6 49 9.5 72 72 NNW 17 28 29.62 1003 10 16 N/A
1:35 am 01:35 Cloudy 58 14.5 49 9.3 71 71 N 9 15 29.62 1003 10 16 N/A
1:55 am 01:55 Cloudy with Drizzle 57 14 49 9.6 75 75 N 13 20 29.62 1003 10 16 N/A
2:15 am 02:15 Cloudy 58 14.2 49 9.5 74 74 N 7 11 29.62 1003 10 16 N/A
2:35 am 02:35 Cloudy with Light Rain 57 14 50 9.8 76 76 NNW 5 7 29.59 1002 10 16 N/A
2:55 am 02:55 Cloudy with Light Rain 56 13.6 50 10.1 80 80 Calm 29.59 1002 10 16 N/A
3:15 am 03:15 Cloudy with Light Rain 56 13.5 51 10.8 84 84 Calm 29.59 1002 7 11 0.01 0.25
3:35 am 03:35 Cloudy with Drizzle 56 13.3 51 10.8 85 85 Calm 29.56 1001 10 16 0.01 0.25
3:55 am 03:55 Cloudy 56 13.3 52 11.1 87 87 Calm 29.56 1001 10 16 0.01 0.25
4:15 am 04:15 Cloudy 55 13 52 11.1 88 88 WNW 7 11 29.56 1001 10 16 N/A
4:35 am 04:35 Mostly Cloudy 54 12.3 51 10.7 90 90 WNW 6 9 29.59 1002 10 16 N/A
4:55 am 04:55 Mostly Cloudy 54 12.1 51 10.6 91 91 NW 3 6 29.59 1002 10 16 N/A
5:15 am 05:15 Cloudy 54 12.1 51 10.8 92 92 WNW 3 6 29.62 1003 10 16 N/A
5:35 am 05:35 Cloudy 54 12 51 10.7 92 92 WNW 5 7 29.62 1003 10 16 N/A
5:55 am 05:55 Cloudy 53 11.8 51 10.6 92 92 NE 6 9 29.62 1003 10 16 N/A
6:15 am 06:15 Cloudy 54 12 51 10.6 91 91 NE 3 6 29.62 1003 10 16 N/A
6:35 am 06:35 Cloudy 53 11.7 51 10.5 92 92 Calm 29.62 1003 10 16 N/A
6:55 am 06:55 Cloudy 53 11.5 51 10.5 94 94 Calm 29.62 1003 10 16 0.00 0.00
7:15 am 07:15 Mostly Cloudy 52 11.1 50 10.1 94 94 Calm 29.62 1003 10 16 N/A
7:35 am 07:35 Mostly Cloudy 51 10.6 50 9.8 95 95 W 7 11 29.62 1003 10 16 N/A
7:55 am 07:55 Cloudy 52 11.3 51 10.5 95 95 WNW 3 6 29.62 1003 10 16 N/A
8:15 am 08:15 Cloudy 53 11.5 51 10.5 94 94 W 5 7 29.65 1004 10 16 N/A
8:35 am 08:35 Cloudy 54 12 52 11 94 94 W 5 7 29.65 1004 10 16 N/A
8:55 am 08:55 Cloudy 55 12.7 52 11.1 90 90 W 5 7 29.65 1004 10 16 N/A
9:15 am 09:15 Cloudy 56 13.1 51 10.6 85 85 WNW 6 9 29.65 1004 10 16 N/A
9:35 am 09:35 Mostly Cloudy 56 13.5 49 9.4 76 76 WNW 8 13 29.62 1003 10 16 N/A
9:55 am 09:55 Cloudy 57 14 50 9.9 77 77 WNW 8 13 29.62 1003 10 16 N/A
10:15 am 10:15 Cloudy 58 14.3 49 9.3 72 72 WNW 8 13 29.62 1003 10 16 N/A
10:35 am 10:35 Partly Cloudy 59 14.9 47 8.4 65 65 NW 12 19 29.62 1003 10 16 N/A
10:55 am 10:55 Sunny 59 15 46 7.6 61 61 NNW 13 20 29.62 1003 10 16 N/A
11:15 am 11:15 Mostly Cloudy 60 15.8 46 7.6 58 58 NW 13 20 29.62 1003 10 16 N/A
11:35 am 11:35 Cloudy 62 16.4 43 6 50 50 NW 10 17 29.62 1003 10 16 N/A
11:55 am 11:55 Cloudy 63 17.1 41 5.2 46 46 NW 9 15 29.59 1002 10 16 N/A
12:15 pm 12:15 Cloudy 64 18 41 5 43 43 NW 14 22 29.59 1002 10 16 N/A
12:35 pm 12:35 Partly Cloudy 65 18.6 40 4.2 39 39 NW 10 17 29.59 1002 10 16 N/A
12:55 pm 12:55 Partly Cloudy 66 19 39 3.8 37 37 NNW 12 19 29.59 1002 10 16 N/A
1:15 pm 13:15 Partly Cloudy 67 19.5 40 4.4 37 37 WNW 12 19 29.56 1001 10 16 N/A
1:35 pm 13:35 Sunny 68 20 40 4.6 36 36 NW 13 20 29.53 1000 10 16 N/A
1:55 pm 13:55 Sunny 69 20.3 38 3.2 32 32 WNW 10 17 29.53 1000 10 16 N/A
2:15 pm 14:15 Mostly Cloudy 67 19.6 38 3.3 34 34 NNW 8 13 29.56 1001 10 16 N/A
2:35 pm 14:35 Mostly Cloudy 69 20.4 38 3.5 33 33 NW 12 19 29.53 1000 10 16 N/A
2:55 pm 14:55 Mostly Cloudy 70 21.1 37 3 30 30 NNW 9 15 29.53 1000 10 16 N/A
3:15 pm 15:15 Mostly Cloudy 68 20.1 36 2.3 31 31 NW 8 13 29.53 1000 10 16 N/A
3:35 pm 15:35 Cloudy 67 19.7 36 2.2 31 31 NW 3 6 29.53 1000 10 16 N/A
3:55 pm 15:55 Mostly Cloudy 68 20 38 3.5 34 34 NW 5 7 29.53 1000 10 16 N/A
4:15 pm 16:15 Partly Cloudy 70 21 38 3.4 32 32 WNW 3 6 29.53 1000 10 16 N/A
4:35 pm 16:35 Mostly Cloudy 68 19.9 39 4 35 35 NNW 3 6 29.53 1000 10 16 N/A
4:55 pm 16:55 Mostly Cloudy 68 20.2 37 2.9 32 32 Calm 29.53 1000 10 16 N/A
5:15 pm 17:15 Partly Cloudy 69 20.8 37 2.8 31 31 Calm 29.53 1000 10 16 N/A
5:35 pm 17:35 Partly Cloudy 70 21.3 39 3.7 32 32 WNW 10 17 29.56 1001 10 16 N/A
5:55 pm 17:55 Partly Cloudy 68 20 37 2.6 32 32 WNW 9 15 29.56 1001 10 16 N/A
6:15 pm 18:15 Sunny 69 20.4 36 2.3 30 30 WNW 10 17 29.56 1001 10 16 N/A
6:35 pm 18:35 Sunny 67 19.2 38 3.4 35 35 WNW 8 13 29.59 1002 10 16 N/A
6:55 pm 18:55 Sunny 64 17.5 39 4 41 41 WNW 7 11 29.62 1003 10 16 N/A
7:15 pm 19:15 Sunny 59 15.2 40 4.7 50 50 W 8 13 29.65 1004 10 16 N/A
7:35 pm 19:35 Clear 56 13.5 40 4.7 56 56 W 7 11 29.65 1004 7 11 N/A
7:55 pm 19:55 Clear 54 12.3 40 4.5 59 59 WSW 6 9 29.68 1005 10 16 N/A
8:15 pm 20:15 Clear 56 13.3 40 4.5 55 55 WSW 6 9 29.68 1005 10 16 N/A
8:35 pm 20:35 Clear 54 12.1 40 4.2 59 59 W 6 9 29.68 1005 10 16 N/A
8:55 pm 20:55 Clear 55 12.7 38 3.4 53 53 W 7 11 29.68 1005 10 16 N/A
9:15 pm 21:15 Clear 53 11.5 38 3.2 57 57 W 9 15 29.71 1006 10 16 N/A
9:35 pm 21:35 Clear 53 11.4 38 3.1 57 57 W 9 15 29.71 1006 10 16 N/A
9:55 pm 21:55 Clear 50 9.8 38 3.5 65 65 W 6 9 29.74 1007 10 16 N/A
10:15 pm 22:15 Clear 50 9.8 38 3.4 65 65 WNW 5 7 29.77 1008 10 16 N/A
10:35 pm 22:35 Clear 49 9.6 38 3.1 64 64 W 3 6 29.77 1008 10 16 N/A
10:55 pm 22:55 Clear 48 9 38 3.1 67 67 Calm 29.77 1008 10 16 N/A
11:15 pm 23:15 Clear 46 7.6 37 3 73 73 NW 5 7 29.77 1008 10 16 N/A
11:35 pm 23:35 Clear 48 8.8 38 3.1 68 68 NW 7 11 29.77 1008 10 16 N/A
11:55 pm 23:55 Clear 44 6.6 37 2.8 77 77 WNW 6 9 29.80 1009 10 16 N/A

Powered by AerisWeather